User: anonymous   Login
Location: Albany
(35.0000°S, 118.0000°E)
Time: 05:07:19
(UTC-04:00)
Language:

Centaur D-1AR AC-48 - Orbit

View from above orbital plane
View from above orbital plane
View from above satellite
View from above satellite

Ground track
Ground track

The orbit data is extracted from the following two-line orbital elements,

1 10779U 78035B   17086.32529301 -.00000130 +00000-0 -82927-3 0  9991
2 10779 021.4441 096.6168 7193168 324.4861 172.6430 02.22660473316815
Epoch (UTC): 27 March 2017 07:48:25
Eccentricity: 0.7193168
inclination: 21.4441°
perigee height: 575 km
apogee height: 36213 km
right ascension of ascending node: 96.6168°
argument of perigee: 324.4861°
revolutions per day: 2.22660473
mean anomaly at epoch: 172.6430°
orbit number at epoch: 31681

The dashed part of the orbit path shows where the satellite is in the earth's shadow,  

DLR